www.pogodaiklimat.ru

Погода и климат >> Архив погоды >> Россия >> Астраханская область >> Харабали


ПОГОДА в Харабали

  • Прогноз погоды в Харабали
  • Монитор погоды в Харабали

АРХИВ ПОГОДЫ в Харабали

Время (UTC), дата Ветер
(напр.,м/с)
 
Видим.   Явления Облачность Т
(С)
Тd
(С)
f
(%)
Тe
(С)
Тes
(С)
Комфортность P
(гПа)
Po
(гПа)
Тmin
(С)
Tmax
(С)
R
(мм)
R24
(мм)
S
(см)
21 16.07 штиль 0 20 км ясно +18.4 +15.4 83 +19 +19 1007.5 1009.4
00 17.07 С 1 20 км ясно +16.8 +15.2 90 +18 +18 1007.2 1009.1
03 17.07 З 1 4000 м дымка ясно +18.6 +16.3 86 +21 +23 комфорт 1007.0 1008.9 +16.4
06 17.07 З 2 20 км ясно +25.5 +17.3 60 +29 +41 душно 1006.9 1008.7
09 17.07 З 2 20 км 1/0
[Ci fib]
+29.1 +15.2 43 +32 +49 душно 1006.1 1007.9
12 17.07 З 4 20 км 3/0
[Ci fib]
+30.1 +12.8 35 +31 +38 жарко 1006.0 1007.8
15 17.07 З 3 20 км 1/0
[Ci fib]
+28.7 +12.9 38 +30 +31 жарко 1006.1 1007.9 +30.6
18 17.07 З 1 20 км 1/1 600 м
[Sc diur, vesp]
+22.3 +15.4 65 +26 +26 жарко 1007.4 1009.2
21 17.07 З 2 20 км ясно +19.6 +15.3 76 +22 +22 комфорт 1007.5 1009.4
00 18.07 ЮВ 1 20 км ясно +17.3 +14.7 85 +18 +18 1007.2 1009.1
03 18.07 СЗ 1 20 км 3/0
[Ac As]
+20.7 +14.9 69 +25 +26 комфорт 1008.1 1010.0 +16.8
06 18.07 С 4 20 км {ливн. осадки} 8/3 600 м
[Cb calv Ac trans Cc]
+27.1 +12.9 41 +29 +32 жарко 1008.4 1010.2
09 18.07 С 1 20 км 8/4 600 м
[Cb calv Ac trans]
+29.9 +10.2 29 +30 +37 жарко 1008.2 1010.0
12 18.07 СВ 3 20 км 8/0
[Ac lent Cc]
+32.1 +8.6 23 +31 +36 жарко 1007.3 1009.1
15 18.07 С 3 20 км 3/0
[Ac lent]
+32.1 +8.6 23 +31 +32 жарко 1006.9 1008.7 +32.7 0.0
18 18.07 С 1 20 км 4/4 600 м
[Cb calv]
+26.2 +7.8 31 +26 +26 жарко 1008.5 1010.3
21 18.07 С 2 20 км 9/5 600 м
[Cb calv Ci]
+25.4 +8.8 35 +26 +26 жарко 1008.8 1010.7
00 19.07 С 3 20 км {ливн. осадки} 10/10 600 м
[Cb calv]
+24.0 +11.5 45 +25 +25 комфорт 1009.1 1011.0
03 19.07 СЗ 2 20 км 10/10 600 м
[Cb calv]
+23.1 +14.4 58 +27 +27 душно 1010.6 1012.5 +22.9 0.0
06 19.07 СЗ 2 20 км 8/3 600 м
[Cb calv Ac As]
+26.6 +13.8 45 +29 +33 жарко 1011.2 1013.0
09 19.07 З 3 20 км 6/3 600 м
[Sc Ac As]
+30.4 +12.4 33 +31 +38 жарко 1011.5 1013.3
12 19.07 З 3 20 км 3/3 600 м
[Cu hum Ci fib]
+31.9 +13.0 32 +33 +39 жарко 1011.2 1013.0
15 19.07 З 3 20 км 8/3 600 м
[Cu hum Cc]
+30.5 +12.6 33 +31 +32 жарко 1011.6 1013.4 +32.5
18 19.07 СЗ 1 20 км 6/6 600 м
[Sc diur, vesp]
+27.3 +13.1 42 +29 +29 жарко 1013.0 1014.8
21 19.07 СЗ 2 20 км 3/3 600 м
[Sc diur, vesp]
+24.9 +13.1 48 +27 +27 жарко 1013.3 1015.1
00 20.07 С 2 20 км 10/10 600 м
[Sc]
+24.4 +11.0 43 +26 +26 жарко 1014.1 1016.0
03 20.07 ЮЗ 1 10 км слаб. ливневой дождь 10/10 600 м
[Cb cap]
+19.6 +17.3 87 +23 +23 комфорт 1016.9 1018.8 +19.5 1
06 20.07 ЮЗ 1 20 км {ливн. осадки} 9/9 600 м
[Cb calv]
+22.3 +17.9 76 +27 +29 душно 1017.5 1019.4
09 20.07 З 2 20 км 1/1 600 м
[Cu hum]
+29.5 +11.4 33 +30 +46 жарко 1017.1 1018.9
12 20.07 З 3 20 км 4/4 600 м
[Cu hum]
+31.2 +13.0 33 +32 +37 жарко 1016.4 1018.2
15 20.07 З 3 20 км 3/3 600 м
[Cu med, cong]
+30.3 +13.1 35 +32 +32 жарко 1016.4 1018.2 +32.0 0.3
18 20.07 СЗ 2 20 км 1/0
[Ci fib]
+26.8 +9.3 33 +27 +27 жарко 1017.2 1019.1
21 20.07 С 2 20 км ясно +22.9 +6.8 35 +24 +24 комфорт 1017.7 1019.6
00 21.07 С 2 20 км ясно +21.2 +8.2 43 +22 +22 комфорт 1017.9 1019.8
03 21.07 С 1 20 км 1/1 600 м
[Sc]
+21.6 +10.8 50 +23 +25 комфорт 1018.7 1020.6 +18.1
06 21.07 СВ 2 20 км ясно +30.7 +5.4 20 +29 +40 жарко 1018.4 1020.2
09 21.07 С 2 20 км 1/1 600 м
[Cu hum]
+33.5 +2.1 14 +30 +46 жарко 1017.5 1019.3
12 21.07 Ю 2 20 км 3/0
[Ac trans]
+34.7 +2.4 13 +32 +40 жарко 1015.9 1017.7
15 21.07 ЮЗ 1 20 км 4/0
[Ac trans Ci fib]
+32.6 +11.5 28 +33 +34 жарко 1014.8 1016.6 +34.8
18 21.07 СЗ 1 20 км 8/8 600 м
[Sc]
+25.1 +10.3 39 +26 +26 жарко 1014.7 1016.6
21 21.07 С 2 20 км 9/9 600 м
[Sc]
+27.5 +3.9 22 +26 +26 жарко 1014.2 1016.1
00 22.07 С 3 20 км 9/9 600 м
[Sc]
+26.4 +5.1 26 +26 +26 жарко 1014.1 1015.9
03 22.07 С 4
{10}
20 км 10/10 600 м
[Cb calv]
+26.4 +6.3 28 +26 +26 жарко 1014.5 1016.4 +23.9
06 22.07 С 7-12
{13}
20 км 10/10 600 м
[Cb cap]
+26.9 +8.8 32 +27 +27 жарко 1014.0 1015.8
09 22.07 С 5
{12}
20 км 10/10 600 м
[Cb cap]
+28.8 +6.9 25 +28 +28 жарко 1013.8 1015.6
12 22.07 С 5-10
{11}
20 км 10/10 600 м
[Cb cap]
+31.4 +6.8 21 +30 +30 жарко 1013.3 1015.1
15 22.07 С 3
{10}
20 км 9/3 600 м
[Cu hum Ac trans Ci]
+30.1 +7.1 24 +29 +29 жарко 1013.2 1015.0 +31.5
18 22.07 С 2 20 км 1/1 600 м
[Sc diur, vesp]
+25.9 +7.3 31 +26 +26 жарко 1014.0 1015.9
21 22.07 штиль 0 20 км ясно +17.8 +13.1 74 +18 +18 1014.2 1016.1
00 23.07 штиль 0 20 км ясно +16.6 +14.6 88 +16 +16 1014.3 1016.2
03 23.07 СЗ 1 20 км 5/0
[Ci]
+20.9 +13.0 61 +25 +26 комфорт 1014.1 1016.0 +15.8
06 23.07 СВ 2 20 км 3/0
[Ci fib]
+29.9 +8.1 26 +29 +40 жарко 1014.2 1016.0
09 23.07 ЮЗ 2 20 км 3/1 600 м
[Cu hum Ci fib]
+32.5 +3.8 16 +30 +45 жарко 1013.2 1015.0
12 23.07 СВ 2 20 км 8/4 600 м
[Cu hum Ac cast Ci fib]
+33.8 +3.5 15 +31 +35 жарко 1011.9 1013.7
15 23.07 ЮЗ 2 20 км 8/3 600 м
[Cu hum Ac cast Ci fib]
+30.2 +11.5 32 +31 +31 жарко 1011.2 1013.0 +34.4
18 23.07 штиль 0 20 км 3/3 600 м
[Cb calv]
+23.5 +18.9 75 +28 +28 душно 1011.4 1013.2

 

Местоположение метеостанции Харабали (Астраханская область, Россия): широта 47.40 долгота 47.25 высота над уровнем моря -17 м.

В архиве по умолчанию представлена погода в Харабали за последнюю неделю. Архивные данные за месяц целиком и за предыдущие месяцы, начиная с января 2011 года, Вы можете получить, выбрав интересующий диапазон дат из раскрывающегося списка и нажав кнопку "Ввод!".


*Определитесь, кто Вы:
робот инопланетянин человек

Внимание! Время в таблицах - всемирное. Для получения местного времени необходимо прибавить поправку, которая равна 4 ч.

Смотрите также архив погоды в соседних городах и на ближайших метеорологических станциях:

Погода в Досанге (Астраханская область, Россия) (74 км)
Погода в Юсте (Калмыкия, Россия) (76 км)
Погода в Верхнем Баскунчаке (Астраханская область, Россия) (99 км)
Погода в Черный Яр (Астраханская область, Россия) (113 км)
Погода в Жанауштогане (Атырауская область, Казахстан) (129 км)
Погода в Астрахани (Астраханская область, Россия) (136 км)
Погода в Утте (Калмыкия, Россия) (148 км)
Погода в Урде (Западно-Казахстанская область, Казахстан) (153 км)
Погода в Зеленге (Астраханская область, Россия) (171 км)
Погода в Ганюшкино (Атырауская область, Казахстан) (177 км)

Пояснения к столбцам:

Ветер - указаны скорость ветра в м/с - средняя за 10 мин, порывы в срок и между сроками (в фигурных скобках) и направление, откуда дует ветер: С - северный, СВ - северо-восточный, В - восточный, ЮВ - юго-восточный, Ю - южный, ЮЗ - юго-западный, З - западный, СЗ - северо-западный.
Видимость - горизонтальная дальность видимости в метрах или километрах. При видимости от 1 до 10 км при отсутствии осадков обычно наблюдается дымка, при ухудшении видимости до 1 км и менее - туман. В сухую погоду видимость может ухудшаться дымом, пылью или мглою.
Явления - указаны атмосферные явления, наблюдавшиеся в срок или в последний час перед сроком; фигурными скобками обозначены явления, наблюдавшиеся между сроками (за 1-3 часа до срока); квадратными скобками обозначены град или гололедные отложения с указанием их диаметра в мм.
Облачность - указаны через наклонную черту общая и нижняя облачность в баллах и высота нижней границы облаков в метрах; квадратными скобками обозначены формы облаков: Ci - перистые, Cs - перисто-слоистые, Cc - перисто-кучевые, Ac - высококучевые, As - высокослоистые, Sc - слоисто-кучевые, Ns - слоисто-дождевые, Cu - кучевые, Cb - кучево-дождевые. Подробнее классификацию облаков см. в Атласе облаков (PDF).
T - Температура воздуха - температура, измеренная на высоте 2 м над землей.
Td - Температура точки росы - температура, при понижении до которой содержащийся в воздухе водяной пар достигнет насыщения.
f - Относительная влажность воздуха - влажноcть воздуха, измеренная на высоте 2 м над землей.
Te - Эффективная температура - температура, которую ощущает одетый по сезону человек в тени. Характеристика душности погоды. При расчете учитывается влияние влажности воздуха и скорости ветра на теплоощущения человека.
Tes - Эффективная температура на солнце - температура, которую ощущает человек, с поправкой на солнечный нагрев. Характеристика знойности погоды. Зависит от высоты солнца над горизонтом, облачности и скорости ветра. Ночью, в пасмурную погоду, а также при ветре 12 м/с и более поправка равна нулю.
P - Атмосферное давление - приведенное к уровню моря атмосферное давление.
Po - Атмосферное давление - измеренное на уровне метеостанции атмосферное давление.
Tmin - Минимальная температура - минимум температуры воздуха на высоте 2 м над землей.
Tmax - Максимальная температура - максимум температуры воздуха на высоте 2 м над землей.
R - Количество осадков - Количество выпавших осадков за период времени, мм. При наведении курсора мыши на число - период времени, за который выпало указанное количество осадков.
R24 - Количество осадков - Количество выпавших осадков за 24 часа, мм.
S - Снежный покров - Высота снежного покрова, см. При наведении курсора мыши на число - состояние снежного покрова и степень покрытия местности в баллах.